LKPR Weather Reports


time (UTC)temp
C
wind
direction
speed
KPH
gust
KPH
rain 1hr
cm
rain 24hr
cm
rain mn
cm
humidity
%
barometer
mb
20260905233202 12 280 11.3 0.0 0.00 0.00 0.00 71 1024.0
20260905231801 13 290 11.3 0.0 0.00 0.00 0.00 67
20260905230203 13 280 14.5 0.0 0.00 0.00 0.00 67 1024.0
20260905223202 13 270 12.9 0.0 0.00 0.00 0.00 62 1024.0
20260905222204 13 280 11.3 0.0 0.00 0.00 0.00 62
20260905220203 13 270 11.3 0.0 0.00 0.00 0.00 62 1024.0
20260905213202 15 270 14.5 0.0 0.00 0.00 0.00 58 1023.0
20260905211800 15 260 14.5 0.0 0.00 0.00 0.00 58
20260905210202 15 270 12.9 0.0 0.00 0.00 0.00 58 1023.0
20260905210002 16 250 14.5 0.0 0.00 0.00 0.00 55 1023.0
20260905205102 16 250 14.5 0.0 0.00 0.00 0.00 55 1023.0
20260905204702 16 250 14.5 0.0 0.00 0.00 0.00 55 1023.0
20260905204102 16 250 14.5 0.0 0.00 0.00 0.00 55 1023.0
20260905203203 16 250 14.5 0.0 0.00 0.00 0.00 55 1023.0
20260905201802 16 260 14.5 0.0 0.00 0.00 0.00 55
20260905200903 16 240 14.5 0.0 0.00 0.00 0.00 55 1022.0
20260905200303 16 240 14.5 0.0 0.00 0.00 0.00 55 1022.0
20260905195903 16 260 14.5 0.0 0.00 0.00 0.00 55 1022.0
20260905195203 16 260 14.5 0.0 0.00 0.00 0.00 55 1022.0
20260905194103 16 260 14.5 0.0 0.00 0.00 0.00 55 1022.0
20260905193409 16 260 14.5 0.0 0.00 0.00 0.00 55 1022.0
20260905193203 16 260 14.5 0.0 0.00 0.00 0.00 55 1022.0
20260905192703 17 270 16.1 0.0 0.00 0.00 0.00 55 1022.0
20260905192110 17 270 14.5 0.0 0.00 0.00 0.00 51
20260905192103 17 270 16.1 0.0 0.00 0.00 0.00 55 1022.0
20260905191603 17 270 16.1 0.0 0.00 0.00 0.00 55 1022.0
20260905181819 17 290 14.5 0.0 0.00 0.00 0.00 48
20260905181302 17 280 14.5 0.0 0.00 0.00 0.00 48 1021.0
20260905181102 17 280 14.5 0.0 0.00 0.00 0.00 48 1021.0
20260905180703 17 280 14.5 0.0 0.00 0.00 0.00 48 1021.0
20260905180303 17 280 14.5 0.0 0.00 0.00 0.00 48 1021.0
20260905180103 18 290 16.1 0.0 0.00 0.00 0.00 45 1021.0
20260905175403 18 290 16.1 0.0 0.00 0.00 0.00 45 1021.0
20260905175203 18 290 16.1 0.0 0.00 0.00 0.00 45 1021.0
20260905174702 18 290 16.1 0.0 0.00 0.00 0.00 45 1021.0
20260905174103 18 290 16.1 0.0 0.00 0.00 0.00 45 1021.0
20260905173410 18 290 16.1 0.0 0.00 0.00 0.00 45 1021.0
20260905172703 20 300 22.5 0.0 0.00 0.00 0.00 42 1020.0
20260905172103 20 300 22.5 0.0 0.00 0.00 0.00 42 1020.0
20260905171819 20 310 19.3 0.0 0.00 0.00 0.00 42
20260905171503 20 300 22.5 0.0 0.00 0.00 0.00 42 1020.0
20260905170503 20 300 22.5 0.0 0.00 0.00 0.00 42 1020.0
20260905170203 20 300 22.5 0.0 0.00 0.00 0.00 42 1020.0
20260905163803 21 300 22.5 0.0 0.00 0.00 0.00 43 1020.0
20260905163202 21 300 22.5 0.0 0.00 0.00 0.00 43 1020.0
20260905162902 21 310 22.5 0.0 0.00 0.00 0.00 43 1020.0
20260905162217 21 320 22.5 0.0 0.00 0.00 0.00 43
20260905162203 21 310 22.5 0.0 0.00 0.00 0.00 43 1020.0
20260905161603 21 310 22.5 0.0 0.00 0.00 0.00 43 1020.0
20260905161103 21 310 22.5 0.0 0.00 0.00 0.00 43 1020.0
20260905160803 21 310 22.5 0.0 0.00 0.00 0.00 43 1020.0
20260905160302 21 310 22.5 0.0 0.00 0.00 0.00 43 1020.0
20260905154703 21 310 22.5 0.0 0.00 0.00 0.00 43 1019.0
20260905154503 21 310 22.5 0.0 0.00 0.00 0.00 43 1019.0
20260905154203 21 310 22.5 0.0 0.00 0.00 0.00 43 1019.0
20260905151807 22 300 25.7 45.1 0.00 0.00 0.00 40 1019.0
20260905151710 22 290 29.0 0.0 0.00 0.00 0.00 37
20260905151104 22 300 25.7 45.1 0.00 0.00 0.00 40 1019.0
20260905150602 22 300 25.7 45.1 0.00 0.00 0.00 40 1019.0
20260905145902 22 270 33.8 51.5 0.00 0.00 0.00 37 1019.0
20260905145603 22 270 33.8 51.5 0.00 0.00 0.00 37 1019.0
20260905145102 22 270 33.8 51.5 0.00 0.00 0.00 37 1019.0
20260905144202 22 270 29.0 0.0 0.00 0.00 0.00 37 1019.0
20260905143703 22 270 29.0 0.0 0.00 0.00 0.00 37 1019.0
20260905142102 22 280 32.2 0.0 0.00 0.00 0.00 37 1019.0
20260905141711 22 290 25.7 0.0 0.00 0.00 0.00 37
20260905140408 22 280 32.2 0.0 0.00 0.00 0.00 37 1019.0
20260905140103 21 280 27.4 0.0 0.00 0.00 0.00 43 1019.0
20260905135004 21 280 27.4 0.0 0.00 0.00 0.00 43 1019.0
20260905134602 21 280 27.4 0.0 0.00 0.00 0.00 43 1019.0
20260905134203 21 280 27.4 0.0 0.00 0.00 0.00 43 1019.0
20260905133803 21 280 27.4 0.0 0.00 0.00 0.00 43 1019.0
20260905133409 21 280 27.4 0.0 0.00 0.00 0.00 43 1019.0
20260905133213 21 280 27.4 0.0 0.00 0.00 0.00 43 1019.0
20260905133102 22 280 32.2 0.0 0.00 0.00 0.00 43 1019.0
20260905132205 22 280 32.2 0.0 0.00 0.00 0.00 43 1019.0
20260905132002 22 270 25.7 0.0 0.00 0.00 0.00 40
20260905131602 22 280 32.2 0.0 0.00 0.00 0.00 43 1019.0
20260905131103 22 280 32.2 0.0 0.00 0.00 0.00 43 1019.0
20260905130703 22 280 32.2 0.0 0.00 0.00 0.00 43 1019.0
20260905130203 22 280 32.2 0.0 0.00 0.00 0.00 43 1019.0
20260905125602 21 260 27.4 0.0 0.00 0.00 0.00 43 1019.0
20260905125403 21 260 27.4 0.0 0.00 0.00 0.00 43 1019.0
20260905125203 21 260 27.4 0.0 0.00 0.00 0.00 43 1019.0
20260905124902 21 260 27.4 0.0 0.00 0.00 0.00 43 1019.0
20260905124503 21 260 27.4 0.0 0.00 0.00 0.00 43 1019.0
20260905124003 21 260 27.4 0.0 0.00 0.00 0.00 43 1019.0
20260905123603 21 260 27.4 0.0 0.00 0.00 0.00 43 1019.0
20260905123302 21 260 27.4 0.0 0.00 0.00 0.00 43 1019.0
20260905123103 21 280 25.7 0.0 0.00 0.00 0.00 43 1019.0
20260905122103 21 280 25.7 0.0 0.00 0.00 0.00 43 1019.0
20260905121913 21 280 29.0 0.0 0.00 0.00 0.00 43
20260905121707 21 280 25.7 0.0 0.00 0.00 0.00 43 1019.0
20260905121102 21 280 25.7 0.0 0.00 0.00 0.00 43 1019.0
20260905120504 21 280 25.7 0.0 0.00 0.00 0.00 43 1019.0
20260905115802 20 270 29.0 0.0 0.00 0.00 0.00 49 1020.0
20260905114002 20 270 29.0 0.0 0.00 0.00 0.00 49 1020.0
20260905113202 20 270 29.0 0.0 0.00 0.00 0.00 49 1020.0
20260905112702 20 260 32.2 0.0 0.00 0.00 0.00 45 1020.0
20260905112202 20 260 32.2 0.0 0.00 0.00 0.00 45 1020.0
20260905111810 20 270 29.0 0.0 0.00 0.00 0.00 45
20260905111803 20 260 32.2 0.0 0.00 0.00 0.00 45 1020.0
20260905110201 20 260 32.2 0.0 0.00 0.00 0.00 45 1020.0
20260905105202 20 260 29.0 0.0 0.00 0.00 0.00 52 1019.0
20260905105003 20 260 29.0 0.0 0.00 0.00 0.00 52 1019.0
20260905104603 20 260 29.0 0.0 0.00 0.00 0.00 52 1019.0
20260905104303 20 260 29.0 0.0 0.00 0.00 0.00 52 1019.0
20260905103203 20 260 29.0 0.0 0.00 0.00 0.00 52 1019.0
20260905102803 17 260 27.4 0.0 0.00 0.00 0.00 59 1019.0
20260905102223 18 270 25.7 0.0 0.00 0.00 0.00 52
20260905101902 17 260 27.4 0.0 0.00 0.00 0.00 59 1019.0
20260905101403 17 260 27.4 0.0 0.00 0.00 0.00 59 1019.0
20260905100803 17 260 27.4 0.0 0.00 0.00 0.00 59 1019.0
20260905100302 17 260 27.4 0.0 0.00 0.00 0.00 59 1019.0
20260905095203 17 250 24.1 0.0 0.00 0.00 0.00 67 1020.0
20260905094803 17 250 24.1 0.0 0.00 0.00 0.00 67 1020.0
20260905094202 17 250 24.1 0.0 0.00 0.00 0.00 67 1020.0
20260905093703 17 250 24.1 0.0 0.00 0.00 0.00 67 1020.0
20260905092403 17 260 24.1 0.0 0.00 0.00 0.00 67 1020.0
20260905091908 17 260 24.1 0.0 0.00 0.00 0.00 67 1020.0
20260905091813 17 260 22.5 0.0 0.00 0.00 0.00 63
20260905090803 17 260 24.1 0.0 0.00 0.00 0.00 67 1020.0
20260905090202 17 260 24.1 0.0 0.00 0.00 0.00 67 1020.0
20260905084202 17 250 24.1 0.0 0.00 0.00 0.00 77 1020.0
20260905083203 17 250 24.1 0.0 0.00 0.00 0.00 77 1020.0
20260905081805 16 250 22.5 0.0 0.00 0.00 0.00 77
20260905080203 16 240 27.4 0.0 0.00 0.00 0.00 77 1019.0
20260905073202 16 240 29.0 0.0 0.00 0.00 0.00 77 1019.0
20260905072107 15 240 29.0 0.0 0.00 0.00 0.00 82
20260905070203 15 240 32.2 0.0 0.00 0.00 0.00 82 1019.0
20260905063203 15 240 27.4 0.0 0.00 0.00 0.00 82 1019.0
20260905061806 13 240 25.7 0.0 0.00 0.00 0.00 87
20260905060202 13 240 25.7 0.0 0.00 0.00 0.00 87 1019.0
20260905053202 13 230 19.3 0.0 0.00 0.00 0.00 87 1018.0
20260905051806 12 250 11.3 0.0 0.00 0.00 0.00 93
20260905050203 12 250 12.9 0.0 0.00 0.00 0.00 93 1018.0
20260905043202 13 250 16.1 0.0 0.00 0.00 0.00 87 1017.0
20260905042210 13 210 29.0 0.0 0.00 0.00 0.00 82
20260905040202 13 210 24.1 0.0 0.00 0.00 0.00 87 1016.0
20260905033203 13 220 20.9 0.0 0.00 0.00 0.00 87 1017.0
20260905032207 13 240 20.9 0.0 0.00 0.00 0.00 87 1017.0
20260905031806 15 240 22.5 0.0 0.00 0.00 0.00 77
20260905030203 15 240 25.7 0.0 0.00 0.00 0.00 77 1017.0
20260905024003 16 260 22.5 0.0 0.00 0.00 0.00 67 1017.0
20260905023203 15 260 22.5 0.0 0.00 0.00 0.00 72 1017.0
20260905021805 15 250 19.3 0.0 0.00 0.00 0.00 72
20260905020203 15 250 20.9 0.0 0.00 0.00 0.00 77 1016.0
20260905013202 16 270 14.5 0.0 0.00 0.00 0.00 67 1016.0
20260905012107 17 290 22.5 0.0 0.00 0.00 0.00 59
20260905010703 17 280 24.1 0.0 0.00 0.00 0.00 59 1015.0
20260905010203 17 280 22.5 40.2 0.00 0.00 0.00 59 1015.0
20260905003203 17 290 16.1 0.0 0.00 0.00 0.00 67 1015.0
20260905001819 17 310 25.7 0.0 0.00 0.00 0.00 59
20260905000204 17 300 22.5 48.3 0.00 0.00 0.00 63 1015.0